一网星座-0628星 (ONEWEB-0628)

导读

ONEWEB-0628是英国一网(OneWeb)低轨卫星互联网星座的成员,2023年1月10日完成发射。单星质量约175-200千克,运行在1200公里高度的近地极地轨道,工作在Ku波段。作为第一代OneWeb组网卫星,它通过星间链路实现全球互联网覆盖,可为偏远地区、移动载具提供高速宽带接入服务,推动全球网络普及与空天通信基础设施建设。

Basic Information
目录编号:
55169
目录名称:
ONEWEB-0628
国际标识:
2023-004AF
轨道中心:
EARTH
卫星名称:
一网星座-0628星
卫星全名:
一网星座-0628星 (ONEWEB-0628)
卫星状态:
在轨 (已飞行1341 天)
发射日期:
2023-01-10 UTC
国别 :
英国 (GB)
星等 :
--
This satellite is enrolled in the Space Conjunction Data Service (SCDS) and the current flight risk assessment level is: No High Risk
Orbit Information
数据来源 国际轨道数据 AOE轨道数据
星历时间 2026-09-12T02:45:42+0800
10小时前
查看轨道信息
2026-09-07T00:00:00+0800
5天前
查看轨道信息
半长轴 7591.87km 7591.85km
偏心率 0.0002291 0.0002035
轨道倾角 87.899° 87.901°
近地点辐角 114.643° 122.080°
升交点赤经 333.463° 334.477°
平近点角 245.494° 204.158°
近地点 1211.993km 1212.168km
远地点 1215.473km 1215.258km
周期 109.719分钟 109.719分钟
每日圈数 13.124406 13.124458
Detailed Information
平衡模式:
三轴稳定
覆盖范围:
全球
运营商:
一网卫星公司
运营商所在国:
英国
制造商(研发单位):
一网卫星公司
制造商所在国:
英国
使用方式:
暂无
Satellite Introduction
OneWeb卫星网络由648颗重约125公斤的微型卫星组成,运行在1200公里的轨道上。 每颗卫星都能够提供至少每秒8千兆位的吞吐量,以使用其高吞吐量的Ku频段有效载荷为家庭和移动平台提供互联网接入。该卫星仍在工作。
2D Orbit Map
3D Orbit Map
Orbit Altitude Analysis Chart
Orbit Inclination Analysis Chart
Orbit Comprehensive Analysis Chart
View Comprehensive Chart
Conjunction Data List
Event ID Objects TCA Miss Dist (km) Collision Risk Probability Collision Risk Index (CRI) Action
CDM_260912-190703-550105-516923
2026-09-12T
19:07:19+0000
2.990 km
极远距离
1.315348E-6 低风险 0.37
Miss Distance Evolution Trend with All Objects
Collision Probability Evolution Trend with All Objects